When you browse on this site, cookies collect data to enhance your experience and personalize the content and advertising you see.
Visit our Privacy Policy to learn more. By continuing to use the site, you agree to this use of cookies and data.
  • In Lithuania
  • List of Countries
  • For 7 days
  • Water Temperature
  • Weather Map
  • Weather Widgets
  • user-avatar
    Login

    Hourly Weather Czerwonki

    Today, 21 August, Wednesday

    Time Temperature Precipitation Wind Pressure Humidity
    00:00 +18°C° 0 mm 2 mps 753 mmHg 72%
    01:00 +18°C° 0 mm 2 mps 752 mmHg 74%
    02:00 +17°C° 1 mm 3 mps 752 mmHg 80%
    03:00 +16°C° 1 mm 3 mps 752 mmHg 85%
    04:00 +15°C° 1 mm 4 mps 752 mmHg 91%
    05:00 +14°C° 3.1 mm 5 mps 752 mmHg 91%
    06:00 +14°C° 3.1 mm 6 mps 752 mmHg 91%
    07:00 +12°C° 3.1 mm 7 mps 752 mmHg 91%
    08:00 +13°C° 0.4 mm 6 mps 752 mmHg 91%
    09:00 +12°C° 0.4 mm 5 mps 753 mmHg 91%
    10:00 +12°C° 0.4 mm 5 mps 753 mmHg 91%
    11:00 +12°C° 0.1 mm 4 mps 753 mmHg 91%
    12:00 +13°C° 0.1 mm 4 mps 754 mmHg 91%
    13:00 +13°C° 0.1 mm 3 mps 754 mmHg 91%
    14:00 +14°C° 0 mm 3 mps 754 mmHg 87%
    15:00 +16°C° 0 mm 3 mps 755 mmHg 82%
    16:00 +17°C° 0 mm 3 mps 755 mmHg 78%
    17:00 +16°C° 0 mm 2 mps 755 mmHg 82%
    18:00 +15°C° 0 mm 2 mps 755 mmHg 86%
    19:00 +15°C° 0 mm 1 mps 755 mmHg 91%
    20:00 +14°C° 0 mm 1 mps 756 mmHg 92%
    21:00 +14°C° 0 mm 1 mps 756 mmHg 93%
    22:00 +13°C° 0 mm 1 mps 756 mmHg 94%
    23:00 +13°C° 0 mm 1 mps 756 mmHg 94%

    Tomorrow, 22 August, Thursday

    Time Temperature Precipitation Wind Pressure Humidity
    00:00 +13°C° 0 mm 1 mps 756 mmHg 94%
    01:00 +13°C° 0 mm 1 mps 757 mmHg 94%
    02:00 +12°C° 0 mm 1 mps 757 mmHg 94%
    03:00 +12°C° 0 mm 1 mps 756 mmHg 94%
    04:00 +12°C° 0 mm 1 mps 756 mmHg 93%
    05:00 +13°C° 0 mm 1 mps 757 mmHg 89%
    06:00 +14°C° 0 mm 1 mps 757 mmHg 85%
    07:00 +16°C° 0 mm 1 mps 757 mmHg 81%
    08:00 +18°C° 0 mm 1 mps 757 mmHg 73%
    09:00 +20°C° 0 mm 1 mps 758 mmHg 65%
    10:00 +20°C° 0 mm 2 mps 758 mmHg 56%
    11:00 +21°C° 0 mm 2 mps 757 mmHg 53%
    12:00 +23°C° 0 mm 2 mps 757 mmHg 50%
    13:00 +24°C° 0 mm 2 mps 757 mmHg 47%
    14:00 +23°C° 0 mm 2 mps 757 mmHg 48%
    15:00 +23°C° 0 mm 2 mps 757 mmHg 49%
    16:00 +23°C° 0 mm 2 mps 757 mmHg 50%
    17:00 +20°C° 0 mm 2 mps 757 mmHg 59%
    18:00 +19°C° 0 mm 1 mps 757 mmHg 68%
    19:00 +16°C° 0 mm 1 mps 757 mmHg 77%
    20:00 +16°C° 0 mm 1 mps 757 mmHg 79%
    21:00 +15°C° 0 mm 1 mps 757 mmHg 82%
    22:00 +14°C° 0 mm 1 mps 757 mmHg 84%
    23:00 +14°C° 0 mm 1 mps 757 mmHg 84%

    Day after tomorrow, 23 August, Friday

    Time Temperature Precipitation Wind Pressure Humidity
    00:00 +14°C° 0 mm 1 mps 757 mmHg 85%
    01:00 +14°C° 0 mm 1 mps 757 mmHg 85%
    02:00 +13°C° 0 mm 1 mps 757 mmHg 85%
    03:00 +13°C° 0 mm 2 mps 757 mmHg 86%
    04:00 +13°C° 0 mm 2 mps 757 mmHg 86%
    05:00 +15°C° 0 mm 2 mps 757 mmHg 81%
    06:00 +16°C° 0 mm 2 mps 757 mmHg 76%
    07:00 +18°C° 0 mm 2 mps 757 mmHg 72%
    08:00 +20°C° 0 mm 1 mps 757 mmHg 65%
    09:00 +22°C° 0 mm 1 mps 758 mmHg 59%
    10:00 +24°C° 0 mm 1 mps 758 mmHg 52%
    11:00 +24°C° 0 mm 1 mps 758 mmHg 50%
    12:00 +25°C° 0 mm 1 mps 757 mmHg 47%
    13:00 +25°C° 0 mm 1 mps 757 mmHg 44%
    14:00 +25°C° 0 mm 1 mps 757 mmHg 46%
    15:00 +25°C° 0 mm 1 mps 757 mmHg 47%
    16:00 +25°C° 0 mm 1 mps 756 mmHg 48%
    17:00 +23°C° 0 mm 1 mps 756 mmHg 54%
    18:00 +21°C° 0 mm 1 mps 756 mmHg 61%
    19:00 +19°C° 0 mm 1 mps 756 mmHg 67%
    20:00 +18°C° 0 mm 1 mps 756 mmHg 69%
    21:00 +18°C° 0 mm 1 mps 756 mmHg 71%
    22:00 +16°C° 0 mm 1 mps 756 mmHg 73%
    23:00 +16°C° 0 mm 1 mps 756 mmHg 73%

    24 August, Saturday

    Time Temperature Precipitation Wind Pressure Humidity
    00:00 +15°C° 0 mm 1 mps 756 mmHg 74%
    01:00 +15°C° 0 mm 2 mps 756 mmHg 74%
    02:00 +15°C° 0 mm 2 mps 756 mmHg 76%
    03:00 +14°C° 0 mm 2 mps 756 mmHg 78%
    04:00 +14°C° 0 mm 1 mps 756 mmHg 79%
    05:00 +15°C° 0 mm 1 mps 756 mmHg 76%
    06:00 +18°C° 0 mm 1 mps 756 mmHg 72%
    07:00 +19°C° 0 mm 1 mps 756 mmHg 68%
    08:00 +21°C° 0 mm 1 mps 756 mmHg 62%
    09:00 +21°C° 0 mm 2 mps 756 mmHg 56%
    10:00 +24°C° 0 mm 2 mps 756 mmHg 50%
    11:00 +25°C° 0 mm 2 mps 756 mmHg 47%
    12:00 +25°C° 0 mm 1 mps 755 mmHg 44%
    13:00 +26°C° 0 mm 1 mps 755 mmHg 41%
    14:00 +26°C° 0 mm 1 mps 755 mmHg 42%
    15:00 +26°C° 0 mm 1 mps 754 mmHg 43%
    16:00 +26°C° 0 mm 1 mps 754 mmHg 44%
    17:00 +23°C° 0 mm 1 mps 754 mmHg 51%
    18:00 +21°C° 0 mm 1 mps 754 mmHg 59%
    19:00 +19°C° 0 mm 1 mps 754 mmHg 67%
    20:00 +18°C° 0 mm 1 mps 754 mmHg 69%
    21:00 +18°C° 0 mm 1 mps 754 mmHg 71%
    22:00 +16°C° 0 mm 1 mps 754 mmHg 74%
    23:00 +16°C° 0 mm 1 mps 754 mmHg 75%

    25 August, Sunday

    Time Temperature Precipitation Wind Pressure Humidity
    00:00 +15°C° 0 mm 1 mps 754 mmHg 76%
    01:00 +15°C° 0 mm 1 mps 754 mmHg 77%
    02:00 +15°C° 0 mm 1 mps 754 mmHg 78%
    03:00 +15°C° 0 mm 1 mps 754 mmHg 79%
    04:00 +14°C° 0 mm 1 mps 754 mmHg 81%
    05:00 +16°C° 0 mm 1 mps 754 mmHg 78%
    06:00 +17°C° 0 mm 2 mps 754 mmHg 75%
    07:00 +18°C° 0 mm 2 mps 755 mmHg 72%
    08:00 +20°C° 0 mm 2 mps 755 mmHg 66%
    09:00 +23°C° 0 mm 2 mps 755 mmHg 60%
    10:00 +24°C° 0 mm 2 mps 755 mmHg 54%
    11:00 +25°C° 0 mm 2 mps 755 mmHg 52%
    12:00 +26°C° 0 mm 2 mps 754 mmHg 49%
    13:00 +26°C° 0 mm 2 mps 754 mmHg 46%
    14:00 +26°C° 0 mm 2 mps 754 mmHg 48%
    15:00 +26°C° 0 mm 3 mps 754 mmHg 50%
    16:00 +25°C° 0 mm 3 mps 753 mmHg 52%
    17:00 +24°C° 0 mm 2 mps 753 mmHg 59%
    18:00 +21°C° 0 mm 2 mps 753 mmHg 65%
    19:00 +19°C° 0 mm 2 mps 753 mmHg 72%
    20:00 +18°C° 0 mm 2 mps 753 mmHg 75%
    21:00 +17°C° 0 mm 2 mps 753 mmHg 78%
    22:00 +17°C° 0 mm 2 mps 753 mmHg 81%
    23:00 +16°C° 0 mm 2 mps 753 mmHg 82%

    26 August, Monday

    Time Temperature Precipitation Wind Pressure Humidity
    00:00 +16°C° 0 mm 2 mps 753 mmHg 83%
    01:00 +15°C° 0 mm 2 mps 753 mmHg 84%
    02:00 +15°C° 0 mm 2 mps 753 mmHg 85%
    03:00 +15°C° 0 mm 2 mps 752 mmHg 86%
    04:00 +15°C° 0 mm 2 mps 752 mmHg 87%
    05:00 +16°C° 0 mm 2 mps 752 mmHg 82%
    06:00 +17°C° 0 mm 2 mps 752 mmHg 78%
    07:00 +19°C° 0 mm 2 mps 752 mmHg 73%
    08:00 +20°C° 0 mm 2 mps 752 mmHg 67%
    09:00 +23°C° 0 mm 2 mps 752 mmHg 61%
    10:00 +25°C° 0 mm 2 mps 752 mmHg 55%
    11:00 +25°C° 0 mm 2 mps 752 mmHg 53%
    12:00 +26°C° 0 mm 2 mps 752 mmHg 50%
    13:00 +27°C° 0 mm 1 mps 751 mmHg 48%
    14:00 +27°C° 0 mm 1 mps 751 mmHg 50%
    15:00 +27°C° 0 mm 1 mps 751 mmHg 52%
    16:00 +27°C° 0 mm 1 mps 751 mmHg 54%
    17:00 +25°C° 0 mm 1 mps 751 mmHg 60%
    18:00 +23°C° 0 mm 2 mps 751 mmHg 67%
    19:00 +20°C° 0 mm 2 mps 751 mmHg 73%
    20:00 +19°C° 0 mm 2 mps 751 mmHg 77%
    21:00 +18°C° 0 mm 2 mps 751 mmHg 80%
    22:00 +18°C° 0 mm 2 mps 751 mmHg 84%
    23:00 +17°C° 0 mm 2 mps 751 mmHg 86%
    Show more